Location: La Comballaz
(46.3780°N, 7.0817°E)
Time: 23:23:32
(UTC+00:00)

ARGOS - Pass Details

Date: 09 April 2020
Orbit: 820 x 834 km, 98.5° (Epoch: 24 May)

Event Time Altitude Azimuth Distance (km) Brightness Sun altitude
Rises 19:22:08 0° 173° (S) 3,357 6.0 -12.3°
Reaches altitude 10° 19:24:30 10° 176° (S) 2,426 5.3 -12.6°
Maximum altitude 19:29:51 66° 258° (WSW) 903 3.5 -13.5°
Drops below altitude 10° 19:35:12 10° 341° (NNW) 2,434 6.3 -14.3°
Sets 19:37:35 0° 344° (NNW) 3,370 7.0 -14.6°
